{"data":{"norad_id":87054,"epoch":"2026-05-20T12:24:30.239424Z","epoch_age_seconds":463216,"freshness":"STALE","line1":"1 87054U          26140.51701666  .00001136  00000+0  65306-3 0  9992","line2":"2 87054 100.0858  44.4428 0010906 284.7069  75.2889 14.11761944638729","mean_motion":14.11761944,"eccentricity":0.0010906,"inclination_deg":100.0858,"raan_deg":44.4428,"arg_perigee_deg":284.7069,"mean_anomaly_deg":75.2889,"bstar":0.00065306,"rev_number":63872,"period_min":102.00019954639,"perigee_km":845.46197150091,"apogee_km":861.23528795647,"semimajor_km":7231.4856297287,"source":"CELESTRAK","updated_at":"2026-05-25T13:38:11.435899Z"}}